Location: CHKOBrdy
(49.7003°N, 13.8414°E)
Time: 03:52:43
(UTC+01:00)

ISS - Visible Passes

Search period start: 29 November 2021 00:00
Search period end: 09 December 2021 00:00
Orbit: 417 x 423 km, 51.6° (Epoch: 28 November)

Date Brightness Start Highest point End Pass type
(mag) Time Alt. Az. Time Alt. Az. Time Alt. Az.
29 Nov -3.6 17:05:48 10° W 17:09:12 65° N 17:11:56 15° ENE visible
29 Nov -2.2 18:42:49 10° WNW 18:44:54 34° WNW 18:44:54 34° WNW visible
30 Nov -3.7 17:55:36 10° WNW 17:59:00 64° N 17:59:38 51° ENE visible
30 Nov -0.2 19:32:31 10° WNW 19:32:37 11° WNW 19:32:37 11° WNW visible
01 Dec -3.6 17:08:22 10° W 17:11:44 60° N 17:14:23 15° E visible
01 Dec -2.1 18:45:16 10° WNW 18:47:22 34° W 18:47:22 34° W visible
02 Dec -3.8 17:58:02 10° WNW 18:01:28 89° NNE 18:02:11 53° ESE visible
02 Dec -0.1 19:35:10 10° W 19:35:10 10° W 19:35:10 10° W visible
03 Dec -3.8 17:10:48 10° WNW 17:14:13 74° NNE 17:17:04 14° E visible
03 Dec -1.9 18:47:45 10° W 18:50:04 30° WSW 18:50:04 30° WSW visible
04 Dec -3.0 18:00:27 10° WNW 18:03:46 51° SSW 18:05:05 30° SSE visible
05 Dec -3.5 17:13:08 10° WNW 17:16:32 70° SSW 17:19:55 10° ESE visible
05 Dec -1.2 18:50:38 10° W 18:52:55 17° SW 18:53:16 17° SSW visible
06 Dec -1.5 18:02:59 10° W 18:05:49 25° SW 18:08:39 10° SSE visible
07 Dec -2.1 17:15:32 10° W 17:18:40 35° SSW 17:21:47 10° SE visible
08 Dec -0.4 18:06:35 10° WSW 18:07:39 11° SW 18:08:42 10° SSW visible
